Weather History for KHBG - September, 2013

Change the Weather History Date:

Saturday, September 14, 2013

  Actual Average Record
Temperature  
Mean Temperature 78 °F 78 °F  
Max Temperature 89 °F 88 °F 97 °F (1954)
Min Temperature 67 °F 67 °F 49 °F (1964)
Degree Days  
Heating Degree Days 0 0  
Month to date heating degree days 0 0  
Since 1 July heating degree days 0 0  
Cooling Degree Days 13 12  
Month to date cooling degree days 238 196  
Year to date cooling degree days 2017 2067  
Growing Degree Days 28 (Base 50)    
Moisture  
Dew Point 63 °F    
Average Humidity 67    
Maximum Humidity 93    
Minimum Humidity 41    
Precipitation  
Precipitation 0.00 in 0.16 in 4.10 in (1961)
Month to date precipitation 2.13 2.04  
Year to date precipitation 54.30 44.20  
Sea Level Pressure  
Sea Level Pressure 29.95 in    
Wind  
Wind Speed 3 mph (NE)    
Max Wind Speed 14 mph    
Max Gust Speed 62 mph    
Visibility 10 miles    
Events      
T = Trace of Precipitation, MM = Missing Value Source: NWS Daily Summary

Daily Weather History Graph

Daily Weather History Graph

Search for Another Location

Airport or City:

Trip Planner

Search our weather history database for the weather conditions in past years. The results will help you decide how hot, cold, wet, or windy it might be!

Date:

Astronomy

Sep. 14, 2013 Rise Set
Actual Time 6:40 AM CDT 7:03 PM CDT
Civil Twilight 6:16 AM CDT 7:27 PM CDT
Nautical Twilight 5:47 AM CDT 7:56 PM CDT
Astronomical Twilight 5:19 AM CDT 8:25 PM CDT
Moon 3:30 PM CDT (9/14) 1:28 AM CDT (9/14)
Length of Visible Light 13h 11m
Length of Day
12h 22m
Waxing Gibbous, 72% of the Moon is Illuminated
Sep 14
Waxing Gibbous
Sep 19
Full
Sep 26
Last Quarter
Oct 4
New
Oct 11
First Quarter

Hourly Weather History & Observations

Time (CDT) Temp. Heat Index Dew Point Humidity Pressure Visibility Wind Dir Wind Speed Gust Speed Precip Events Conditions
12:53 AM 73.9 °F - 71.1 °F 91% 29.91 in 9.0 mi Calm Calm - N/A   Overcast
1:53 AM 73.9 °F - 70.0 °F 87% 29.91 in 9.0 mi Calm Calm - N/A   Clear
2:53 AM 73.0 °F - 66.9 °F 81% 29.91 in 10.0 mi Calm Calm - N/A   Scattered Clouds
3:53 AM 72.0 °F - 64.0 °F 76% 29.91 in 10.0 mi North 3.5 mph - N/A   Clear
4:53 AM 69.1 °F - 63.0 °F 81% 29.91 in 10.0 mi Calm Calm - N/A   Clear
5:53 AM 68.0 °F - 62.1 °F 81% 29.93 in 10.0 mi North 3.5 mph - N/A   Clear
6:53 AM 66.9 °F - 61.0 °F 81% 29.94 in 10.0 mi North 3.5 mph - N/A   Clear
7:53 AM 69.1 °F - 61.0 °F 75% 29.96 in 10.0 mi North 3.5 mph - N/A   Clear
8:53 AM 72.0 °F - 60.1 °F 66% 29.98 in 10.0 mi East 4.6 mph 29.9 mph N/A   Clear
9:53 AM 75.0 °F - 61.0 °F 62% 29.99 in 10.0 mi ENE 6.9 mph 62.1 mph N/A   Overcast
10:53 AM 78.1 °F - 62.1 °F 58% 29.99 in 10.0 mi Variable 5.8 mph - N/A   Mostly Cloudy
11:53 AM 82.0 °F 83.0 °F 62.1 °F 51% 29.99 in 10.0 mi Variable 6.9 mph - N/A   Clear
12:53 PM 84.0 °F 84.5 °F 62.1 °F 47% 29.98 in 10.0 mi Variable 3.5 mph - N/A   Clear
1:53 PM 84.9 °F 85.4 °F 62.1 °F 46% 29.96 in 10.0 mi North 5.8 mph - N/A   Clear
2:53 PM 87.1 °F 87.5 °F 62.1 °F 43% 29.94 in 10.0 mi ENE 5.8 mph - N/A   Clear
3:53 PM 89.1 °F 90.0 °F 63.0 °F 42% 29.92 in 10.0 mi Variable 4.6 mph - N/A   Clear
4:53 PM 88.0 °F 88.4 °F 62.1 °F 42% 29.92 in 10.0 mi SE 6.9 mph - N/A   Clear
5:53 PM 87.1 °F 87.5 °F 62.1 °F 43% 29.93 in 10.0 mi East 5.8 mph - N/A   Clear
6:53 PM 82.9 °F 83.7 °F 62.1 °F 49% 29.94 in 10.0 mi North 3.5 mph - N/A   Clear
7:53 PM 75.0 °F - 66.0 °F 73% 29.96 in 10.0 mi Calm Calm - N/A   Clear
8:53 PM 73.9 °F - 66.0 °F 76% 29.99 in 10.0 mi Calm Calm - N/A   Clear
9:53 PM 71.1 °F - 64.9 °F 81% 29.99 in 10.0 mi Calm Calm - N/A   Clear
10:53 PM 71.1 °F - 63.0 °F 75% 30.01 in 10.0 mi Calm Calm - N/A   Clear
11:53 PM 70.0 °F - 63.0 °F 78% 30.01 in 10.0 mi Calm Calm - N/A   Clear